Glasgow, United Kingdom

2:38 PM BST on September 20, 2017 (GMT +0100)
Glasgow

Weather History for EGPF - October, 2011

Change the Weather History Date:

Tuesday, October 25, 2011

  Actual Average Record
Temperature  
Mean Temperature 50 °F -  
Max Temperature 59 °F 48 °F 60 °F (1996)
Min Temperature 42 °F 38 °F 24 °F (2010)
Degree Days  
Heating Degree Days 14    
Moisture  
Dew Point 47 °F    
Average Humidity 79    
Maximum Humidity 94    
Minimum Humidity 67    
Precipitation  
Precipitation 0.00 in - - ()
Sea Level Pressure  
Sea Level Pressure 29.32 in    
Wind  
Wind Speed 11 mph ()    
Max Wind Speed 17 mph    
Max Gust Speed -    
Visibility 5.9 miles    
Events Rain    
Averages and records for this station are not official NWS values.
T = Trace of Precipitation, MM = Missing Value Source: Averaged Metar Reports

Daily Weather History Graph

Daily Weather History Graph

Search for Another Location

Airport or City:

Trip Planner

Search our weather history database for the weather conditions in past years. The results will help you decide how hot, cold, wet, or windy it might be!

Date:

Astronomy

Oct. 25, 2011 Rise Set
Actual Time 8:08 AM BST 5:54 PM BST
Civil Twilight 7:30 AM BST 6:32 PM BST
Nautical Twilight 6:46 AM BST 7:15 PM BST
Astronomical Twilight 6:03 AM BST 7:58 PM BST
Moon 6:14 AM BST (10/25) 4:50 PM BST (10/25)
Length of Visible Light 11h 02m
Length of Day
9h 45m
Waning Crescent, 3% of the Moon is Illuminated
Oct 25
Waning Crescent
Oct 26
New
Nov 2
First Quarter
Nov 10
Full
Nov 18
Last Quarter

Hourly Weather History & Observations

Time (BST) Temp. Windchill Dew Point Humidity Pressure Visibility Wind Dir Wind Speed Gust Speed Precip Events Conditions
12:20 AM 53.6 °F - 44.6 °F 72% 29.27 in - East 17.3 mph - N/A   Clear
12:50 AM 53.6 °F - 42.8 °F 67% 29.27 in - East 10.4 mph - N/A   Clear
1:20 AM 51.8 °F - 44.6 °F 76% 29.27 in - East 11.5 mph - N/A   Clear
1:50 AM 51.8 °F - 44.6 °F 76% 29.27 in 6.2 mi East 16.1 mph - N/A   Partly Cloudy
2:20 AM 53.6 °F - 44.6 °F 72% 29.27 in 6.2 mi East 15.0 mph - N/A   Mostly Cloudy
2:50 AM 53.6 °F - 46.4 °F 77% 29.27 in 6.2 mi East 12.7 mph - N/A Rain Light Rain
3:20 AM 53.6 °F - 46.4 °F 77% 29.27 in 6.2 mi East 13.8 mph - N/A Rain Light Rain
3:50 AM 53.6 °F - 48.2 °F 82% 29.27 in 6.2 mi East 15.0 mph - N/A Rain Light Rain
4:20 AM 53.6 °F - 48.2 °F 82% 29.24 in 5.0 mi East 13.8 mph - N/A Rain Light Rain
4:50 AM 51.8 °F - 50.0 °F 94% 29.24 in - East 13.8 mph - N/A Rain Light Rain
5:20 AM 51.8 °F - 50.0 °F 94% 29.24 in 1.9 mi East 12.7 mph - N/A   Drizzle
5:50 AM 51.8 °F - 50.0 °F 94% 29.24 in 3.1 mi East 11.5 mph - N/A   Light Drizzle
6:20 AM 51.8 °F - 50.0 °F 94% 29.24 in 5.6 mi East 11.5 mph - N/A Rain Light Rain
6:50 AM 53.6 °F - 50.0 °F 88% 29.27 in 5.6 mi East 11.5 mph - N/A   Overcast
7:20 AM 53.6 °F - 50.0 °F 88% 29.24 in 6.2 mi East 13.8 mph - N/A   Mostly Cloudy
7:50 AM 53.6 °F - 50.0 °F 88% 29.27 in 6.2 mi East 13.8 mph - N/A   Scattered Clouds
8:20 AM 53.6 °F - 50.0 °F 88% 29.27 in 6.2 mi East 15.0 mph - N/A   Partly Cloudy
8:50 AM 55.4 °F - 50.0 °F 82% 29.27 in 6.2 mi East 12.7 mph - N/A   Partly Cloudy
9:20 AM 55.4 °F - 50.0 °F 82% 29.30 in 6.2 mi East 10.4 mph - N/A   Scattered Clouds
9:50 AM 55.4 °F - 51.8 °F 88% 29.30 in 6.2 mi ENE 6.9 mph - N/A   Scattered Clouds
10:20 AM 55.4 °F - 50.0 °F 82% 29.30 in 6.2 mi East 9.2 mph - N/A   Scattered Clouds
10:50 AM 55.4 °F - 51.8 °F 88% 29.30 in 6.2 mi East 10.4 mph - N/A   Scattered Clouds
11:20 AM 57.2 °F - 50.0 °F 77% 29.30 in 6.2 mi ESE 11.5 mph - N/A   Scattered Clouds
11:50 AM 57.2 °F - 51.8 °F 82% 29.30 in 6.2 mi ESE 9.2 mph - N/A   Scattered Clouds
12:20 PM 57.2 °F - 50.0 °F 77% 29.30 in 6.2 mi ESE 12.7 mph - N/A   Mostly Cloudy
12:50 PM 57.2 °F - 50.0 °F 77% 29.33 in 6.2 mi ESE 12.7 mph - N/A   Mostly Cloudy
1:20 PM 59.0 °F - 50.0 °F 72% 29.30 in 6.2 mi ESE 12.7 mph - N/A   Partly Cloudy
1:50 PM 59.0 °F - 50.0 °F 72% 29.30 in 6.2 mi ESE 16.1 mph - N/A   Partly Cloudy
2:20 PM 59.0 °F - 50.0 °F 72% 29.30 in 6.2 mi ESE 13.8 mph - N/A   Partly Cloudy
2:50 PM 57.2 °F - 48.2 °F 72% 29.33 in 6.2 mi SSE 15.0 mph - N/A   Mostly Cloudy
3:20 PM 57.2 °F - 46.4 °F 67% 29.33 in 6.2 mi SE 12.7 mph - N/A   Scattered Clouds
3:50 PM 55.4 °F - 46.4 °F 72% 29.33 in 6.2 mi SSE 12.7 mph - N/A   Mostly Cloudy
4:20 PM 57.2 °F - 46.4 °F 67% 29.36 in 6.2 mi SE 12.7 mph - N/A   Mostly Cloudy
4:50 PM 55.4 °F - 46.4 °F 72% 29.36 in 6.2 mi SE 12.7 mph - N/A   Mostly Cloudy
5:20 PM 55.4 °F - 44.6 °F 67% 29.36 in 6.2 mi SE 13.8 mph - N/A   Mostly Cloudy
5:50 PM 53.6 °F - 44.6 °F 72% 29.39 in 6.2 mi SSE 9.2 mph - N/A   Partly Cloudy
6:20 PM 51.8 °F - 42.8 °F 71% 29.39 in - SE 10.4 mph - N/A   Clear
6:50 PM 51.8 °F - 42.8 °F 71% 29.39 in - SE 10.4 mph - N/A   Clear
7:20 PM 51.8 °F - 42.8 °F 71% 29.42 in 6.2 mi SSE 8.1 mph - N/A   Mostly Cloudy
7:50 PM 50.0 °F - 42.8 °F 76% 29.42 in 6.2 mi SE 8.1 mph - N/A   Partly Cloudy
8:20 PM 48.2 °F - 41.0 °F 76% 29.42 in - SSE 6.9 mph - N/A   Clear
8:50 PM 48.2 °F - 41.0 °F 76% 29.42 in 6.2 mi East 3.5 mph - N/A   Partly Cloudy
9:20 PM 48.2 °F - 42.8 °F 82% 29.42 in - SE 4.6 mph - N/A   Clear
9:50 PM 46.4 °F 45.2 °F 41.0 °F 81% 29.44 in - Variable 3.5 mph - N/A   Clear
10:20 PM 44.6 °F 41.4 °F 41.0 °F 87% 29.44 in - East 5.8 mph - N/A   Clear
10:50 PM 42.8 °F 38.6 °F 41.0 °F 93% 29.44 in - NE 6.9 mph - N/A   Clear
11:20 PM 44.6 °F 41.4 °F 41.0 °F 87% 29.44 in - NNE 5.8 mph - N/A   Clear
11:50 PM 46.4 °F 43.5 °F 42.8 °F 87% 29.44 in 6.2 mi NE 5.8 mph - N/A   Mostly Cloudy